STARLINK-1263, 45405

Orbit data source: Space-Track

STARLINK-1263, 45405 is a payload satellite owned by SpaceX/Seattle (US) in LEO that was launched on Wed, 18 Mar 2020 UTC via an FALCON 9 launch vehicle from the Air Force Eastern Test Range (AFETR). Payload-class satellites include a variety of spacecraft equipped with specific instruments for various scientific and technological missions. These include communications satellites like Starlink; space stations such as the ISS; scientific satellites like the Hubble; Earth observation satellites from companies like Planet Labs, Umbra, and HawkEye 360; GPS; miniature CubeSats for education and research; and military/defense satellites.

Loading next visibility...
Identifier
45405, 2020-019AX
Orbit
LEO
Country
Flag of USUS
Related business
Manufacturer
SpaceX/Seattle
Mission
Partially operational Commercial Communications
Bus & Motor
STARLINK, Unknown motor
Mass
260 kg wet, ~248 kg dry
Launch date (UTC)
2020-03-18 (6 years ago)
Launch vehicle
FALCON 9
Launch site
Air Force Eastern Test Range (AFETR)
Object type
Payload
Rocket body
Debris
Shape & HBR
Box + 1 Pan, 10.1 m
Radar Cross Section
13.562 m², Large (>1 m²)

Expand to show TLE details & history
Last TLE update: 5 hours ago

TLE from 5 hours ago
0 STARLINK-1263
1 45405U 20019AX  26255.21727528  .00041660  00000-0  91808-3 0  9990
2 45405  53.1537 335.6379 0003290  30.0166 330.1028 15.43538887358634
Epoch: 2026-09-12T05:12Z
TLE epoch observation values (Epoch: 2026-09-12T05:12:52.584Z)
Latitude
-0.00005°
Longitude
-93.81069°
Altitude
434.636 km
Speed
7.653 km/s
True Right ascension
22h 22m 33s
True Declination
0° 00' 00"
Sunlit
Object was in full shadow at epoch
Visualization orbit readout
Latitude
Unknown
Longitude
Unknown
Altitude
Unknown
Speed
Unknown
Apparent Right ascension
Unknown
Apparent Declination
Unknown
Sunlit
N/A
Visualization observer readout
Local Sidereal Time
02:23:56
Azimuth
Unknown
Elevation
Unknown
Doppler factor
Unknown
Orbital elements
Apogee altitude
438.175 km
Perigee altitude
433.692 km
Semi-major axis
6,814.071 km
Eccentricity
0.00033
Inclination
53.1537°
RAAN
335.6379°
Arg. of periapsis
30.0166°
True anomaly
330.084°
Mean anomaly
330.1028°
Eccentric anomaly
330.0934°
Mean motion
3.85863 °/min
Orbital period
93.3 mins
BSTAR
0.00091808
Loading maneuver chart data...
Computing Atmospheric mass density...

Documentation

Showing up to 5 results
|